| time (UTC) | temp F | wind direction | speed MPH | gust MPH | rain 1hr in | rain 24hr in | rain mn in | humidity % | barometer mb |
| 20260904040042 | 81 | 146 | 2.0 | 7.0 | 0.00 | 0.00 | 0.00 | 70 | 1012.8 |
| 20260904034541 | 81 | 212 | 1.0 | 5.0 | 0.00 | 0.00 | 0.00 | 69 | 1012.9 |
| 20260904033035 | 82 | 257 | 0.0 | 5.0 | 0.00 | 0.00 | 0.00 | 67 | 1012.9 |
| 20260904031525 | 82 | 174 | 1.0 | 4.0 | 0.00 | 0.00 | 0.00 | 67 | 1012.9 |
| 20260904030025 | 82 | 122 | 1.0 | 7.0 | 0.00 | 0.00 | 0.00 | 66 | 1012.7 |
| 20260904024524 | 82 | 135 | 0.0 | 7.0 | 0.00 | 0.00 | 0.00 | 67 | 1012.5 |
| 20260904013016 | 84 | 186 | 2.0 | 10.0 | 0.00 | 0.00 | 0.00 | 70 | 1011.7 |
| 20260904011512 | 84 | 183 | 2.0 | 9.0 | 0.00 | 0.00 | 0.00 | 69 | 1011.4 |
| 20260904010011 | 85 | 232 | 2.0 | 6.0 | 0.00 | 0.00 | 0.00 | 67 | 1011.3 |
| 20260904004510 | 86 | 136 | 2.0 | 7.0 | 0.00 | 0.00 | 0.00 | 65 | 1011.3 |
| 20260904003010 | 86 | 214 | 1.0 | 9.0 | 0.00 | 0.00 | 0.00 | 62 | 1011.4 |
| 20260904001508 | 87 | 96 | 3.0 | 10.0 | 0.00 | 0.00 | 0.00 | 60 | 1011.3 |
| 20260904000010 | 88 | 142 | 3.0 | 11.0 | 0.00 | 0.00 | 0.00 | 61 | 1011.1 |
| 20260903234506 | 89 | 160 | 2.0 | 9.0 | 0.00 | 0.00 | 0.00 | 60 | 1011.0 |
| 20260903233005 | 89 | 74 | 3.0 | 13.0 | 0.00 | 0.00 | 0.00 | 59 | 1011.0 |
| 20260903231506 | 90 | 132 | 2.0 | 9.0 | 0.00 | 0.00 | 0.00 | 60 | 1010.9 |
| 20260903230005 | 90 | 89 | 3.0 | 7.0 | 0.00 | 0.07 | 0.00 | 60 | 1010.9 |
| 20260903224504 | 91 | 258 | 4.0 | 9.0 | 0.00 | 0.07 | 0.00 | 58 | 1010.7 |
| 20260903223006 | 92 | 92 | 3.0 | 13.0 | 0.00 | 0.07 | 0.00 | 56 | 1010.8 |
| 20260903221504 | 91 | 201 | 1.0 | 12.0 | 0.00 | 0.07 | 0.00 | 55 | 1010.6 |
| 20260903220002 | 92 | 91 | 3.0 | 10.0 | 0.00 | 0.07 | 0.00 | 53 | 1010.7 |
| 20260903214600 | 92 | 143 | 3.0 | 8.0 | 0.00 | 0.07 | 0.00 | 54 | 1011.0 |
| 20260903213058 | 92 | 207 | 3.0 | 8.0 | 0.00 | 0.07 | 0.00 | 55 | 1011.2 |
| 20260903211556 | 92 | 146 | 3.0 | 7.0 | 0.00 | 0.07 | 0.00 | 56 | 1011.3 |
| 20260903210053 | 91 | 149 | 3.0 | 9.0 | 0.00 | 0.07 | 0.00 | 57 | 1011.4 |
| 20260903204550 | 91 | 167 | 2.0 | 9.0 | 0.00 | 0.07 | 0.00 | 58 | 1011.7 |
| 20260903203048 | 90 | 74 | 3.0 | 9.0 | 0.00 | 0.07 | 0.00 | 59 | 1011.8 |
| 20260903201546 | 89 | 239 | 1.0 | 9.0 | 0.00 | 0.07 | 0.00 | 61 | 1012.0 |
| 20260903200044 | 89 | 152 | 2.0 | 10.0 | 0.00 | 0.07 | 0.00 | 61 | 1012.0 |
| 20260903194541 | 88 | 204 | 2.0 | 7.0 | 0.00 | 0.07 | 0.00 | 63 | 1011.9 |
| 20260903193040 | 87 | 212 | 2.0 | 8.0 | 0.00 | 0.07 | 0.00 | 64 | 1012.1 |
| 20260903184531 | 88 | 182 | 2.0 | 9.0 | 0.00 | 0.07 | 0.00 | 64 | 1012.7 |
| 20260903183026 | 86 | 148 | 4.0 | 10.0 | 0.00 | 0.07 | 0.00 | 67 | 1012.8 |
| 20260903181522 | 85 | 264 | 4.0 | 12.0 | 0.00 | 0.07 | 0.00 | 69 | 1013.0 |
| 20260903180043 | 84 | 126 | 4.0 | 13.0 | 0.00 | 0.07 | 0.00 | 70 | 1013.2 |
| 20260903174521 | 84 | 210 | 1.0 | 11.0 | 0.00 | 0.07 | 0.00 | 71 | 1013.5 |
| 20260903173017 | 83 | 207 | 3.0 | 9.0 | 0.00 | 0.07 | 0.00 | 73 | 1013.6 |
| 20260903171516 | 82 | 222 | 2.0 | 9.0 | 0.00 | 0.07 | 0.00 | 76 | 1013.7 |
| 20260903170021 | 82 | 133 | 3.0 | 12.0 | 0.00 | 0.07 | 0.00 | 77 | 1013.7 |
| 20260903164514 | 83 | 243 | 3.0 | 15.0 | 0.00 | 0.07 | 0.00 | 76 | 1013.6 |
| 20260903163012 | 83 | 185 | 3.0 | 10.0 | 0.00 | 0.07 | 0.00 | 77 | 1013.5 |
| 20260903161511 | 82 | 221 | 2.0 | 8.0 | 0.00 | 0.07 | 0.00 | 78 | 1013.3 |
| 20260903160010 | 82 | 147 | 4.0 | 10.0 | 0.00 | 0.07 | 0.00 | 78 | 1013.4 |
| 20260903154511 | 81 | 198 | 1.0 | 10.0 | 0.00 | 0.07 | 0.00 | 81 | 1013.2 |
| 20260903153004 | 81 | 87 | 2.0 | 6.0 | 0.00 | 0.07 | 0.00 | 82 | 1013.2 |
| 20260903151503 | 81 | 150 | 2.0 | 10.0 | 0.00 | 0.07 | 0.00 | 83 | 1013.2 |
| 20260903150005 | 81 | 199 | 2.0 | 9.0 | 0.00 | 0.07 | 0.00 | 83 | 1013.3 |
| 20260903144600 | 81 | 151 | 2.0 | 8.0 | 0.00 | 0.07 | 0.00 | 83 | 1013.3 |
| 20260903134540 | 78 | 158 | 0.0 | 9.0 | 0.00 | 0.07 | 0.00 | 87 | 1013.5 |
| 20260903133033 | 78 | 99 | 1.0 | 6.0 | 0.00 | 0.07 | 0.00 | 87 | 1013.4 |
| 20260903131533 | 78 | 84 | 1.0 | 5.0 | 0.00 | 0.07 | 0.00 | 87 | 1013.3 |
| 20260903130031 | 78 | 65 | 0.0 | 4.0 | 0.00 | 0.07 | 0.00 | 87 | 1012.9 |
| 20260903124529 | 78 | 91 | 2.0 | 7.0 | 0.00 | 0.07 | 0.00 | 87 | 1013.0 |
| 20260903123034 | 78 | 101 | 2.0 | 6.0 | 0.00 | 0.07 | 0.00 | 87 | 1012.9 |
| 20260903121528 | 78 | 95 | 1.0 | 5.0 | 0.00 | 0.07 | 0.00 | 87 | 1012.8 |
| 20260903120024 | 78 | 101 | 1.0 | 5.0 | 0.00 | 0.07 | 0.00 | 88 | 1012.7 |
| 20260903114530 | 77 | 146 | 2.0 | 6.0 | 0.00 | 0.07 | 0.00 | 87 | 1012.5 |
| 20260903113023 | 77 | 209 | 0.0 | 3.0 | 0.00 | 0.07 | 0.00 | 87 | 1012.5 |
| 20260903111520 | 77 | 177 | 0.0 | 4.0 | 0.00 | 0.07 | 0.00 | 87 | 1012.4 |
| 20260903110019 | 77 | 105 | 0.0 | 3.0 | 0.00 | 0.07 | 0.00 | 87 | 1012.6 |
| 20260903104520 | 77 | 108 | 0.0 | 4.0 | 0.00 | 0.07 | 0.00 | 87 | 1012.3 |
| 20260903103019 | 77 | 92 | 0.0 | 3.0 | 0.00 | 0.07 | 0.00 | 88 | 1012.2 |
| 20260903101518 | 77 | 198 | 0.0 | 7.0 | 0.00 | 0.07 | 0.00 | 87 | 1012.3 |
| 20260903100118 | 77 | 79 | 0.0 | 5.0 | 0.00 | 0.07 | 0.00 | 87 | 1012.2 |
| 20260903094516 | 77 | 106 | 0.0 | 3.0 | 0.00 | 0.07 | 0.00 | 86 | 1012.4 |
| 20260903093036 | 78 | 133 | 0.0 | 5.0 | 0.00 | 0.07 | 0.00 | 84 | 1012.4 |
| 20260903091512 | 79 | 195 | 1.0 | 6.0 | 0.00 | 0.07 | 0.00 | 81 | 1012.3 |
| 20260903090013 | 79 | 167 | 0.0 | 2.0 | 0.00 | 0.07 | 0.00 | 80 | 1012.2 |
| 20260903084526 | 78 | 218 | 0.0 | 0.0 | 0.00 | 0.07 | 0.00 | 82 | 1011.9 |
| 20260903083011 | 78 | 212 | 0.0 | 3.0 | 0.00 | 0.07 | 0.00 | 83 | 1012.0 |
| 20260903081512 | 78 | 98 | 0.0 | 5.0 | 0.00 | 0.07 | 0.00 | 82 | 1012.1 |
| 20260903080009 | 78 | 256 | 1.0 | 4.0 | 0.00 | 0.07 | 0.00 | 83 | 1012.0 |
| 20260903074510 | 78 | 95 | 0.0 | 3.0 | 0.00 | 0.07 | 0.00 | 84 | 1011.9 |
| 20260903073009 | 78 | 86 | 0.0 | 3.0 | 0.00 | 0.07 | 0.00 | 84 | 1012.0 |
| 20260903071515 | 79 | 103 | 0.0 | 4.0 | 0.00 | 0.07 | 0.00 | 82 | 1011.9 |
| 20260903070005 | 79 | 94 | 0.0 | 2.0 | 0.00 | 0.07 | 0.00 | 81 | 1012.0 |
| 20260903064604 | 79 | 60 | 0.0 | 0.0 | 0.00 | 0.07 | 0.00 | 82 | 1012.0 |
| 20260903063003 | 79 | 60 | 0.0 | 0.0 | 0.00 | 0.07 | 0.00 | 82 | 1012.1 |
| 20260903061502 | 79 | 94 | 0.0 | 4.0 | 0.00 | 0.07 | 0.00 | 81 | 1012.0 |
| 20260903060001 | 79 | 101 | 1.0 | 6.0 | 0.00 | 0.07 | 0.00 | 80 | 1012.2 |
| 20260903054558 | 79 | 61 | 2.0 | 8.0 | 0.00 | 0.07 | 0.00 | 79 | 1012.3 |
| 20260903053055 | 79 | 114 | 2.0 | 9.0 | 0.00 | 0.07 | 0.00 | 78 | 1012.4 |
| 20260903051558 | 80 | 102 | 3.0 | 10.0 | 0.00 | 0.07 | 0.00 | 76 | 1012.5 |
| 20260903050050 | 80 | 60 | 1.0 | 8.0 | 0.00 | 0.07 | 0.00 | 74 | 1012.6 |
| 20260903044552 | 81 | 94 | 2.0 | 10.0 | 0.00 | 0.07 | 0.07 | 73 | 1012.7 |
| 20260903043048 | 81 | 106 | 3.0 | 9.0 | 0.00 | 0.07 | 0.07 | 72 | 1012.6 |
| 20260903041548 | 82 | 101 | 2.0 | 11.0 | 0.00 | 0.07 | 0.07 | 70 | 1012.6 |